STARLINK-35938, 66644

Orbit data source: Space-Track

STARLINK-35938, 66644 is a payload satellite owned by SpaceX/Seattle (US) in LEO that was launched on Sun, 23 Nov 2025 UTC via an FALCON 9 launch vehicle from the Air Force Western Test Range (AFWTR). Payload-class satellites include a variety of spacecraft equipped with specific instruments for various scientific and technological missions. These include communications satellites like Starlink; space stations such as the ISS; scientific satellites like the Hubble; Earth observation satellites from companies like Planet Labs, Umbra, and HawkEye 360; GPS; miniature CubeSats for education and research; and military/defense satellites.

Loading next visibility...
Identifier
66644, 2025-271AD
Orbit
LEO
Country
Flag of USUS
Related business
Manufacturer
SpaceX/Seattle
Mission
Operational Commercial Communications
Bus & Motor
STARLINK V2MO, Unknown motor
Mass
575 kg wet, ~530 kg dry
Launch date (UTC)
2025-11-23 (5 months ago)
Launch vehicle
FALCON 9
Launch site
Air Force Western Test Range (AFWTR)
Object type
Payload
Rocket body
Debris
Shape & HBR
Box + 2 Pan, 17.7 m
Radar Cross Section
36.964 m²

Expand to show TLE details & history
Last TLE update: 1 day ago

TLE from 1 day ago
0 STARLINK-35938
1 66644U 25271AD  26127.54746788 -.00005718  00000-0 -18112-3 0  9999
2 66644  53.1585 226.8540 0001105  76.2904 283.8220 15.30195842 26570
Epoch: 2026-05-07T13:08Z
TLE epoch observation values (Epoch: 2026-05-07T13:08:21.224Z)
Latitude
-0.00002°
Longitude
164.37352°
Altitude
475.946 km
Speed
7.629 km/s
True Right ascension
15h 07m 24s
True Declination
0° 00' 00"
Sunlit
Object was in full shadow at epoch
Visualization orbit readout
Latitude
Unknown
Longitude
Unknown
Altitude
Unknown
Speed
Unknown
Apparent Right ascension
Unknown
Apparent Declination
Unknown
Sunlit
N/A
Visualization observer readout
Local Sidereal Time
20:53:10
Azimuth
Unknown
Elevation
Unknown
Doppler factor
Unknown
Orbital elements
Apogee altitude
476.241 km
Perigee altitude
474.727 km
Semi-major axis
6,853.621 km
Eccentricity
0.00011
Inclination
53.1585°
RAAN
226.854°
Arg. of periapsis
76.2904°
True anomaly
283.8097°
Mean anomaly
283.822°
Eccentric anomaly
283.81585°
Mean motion
3.82528 °/min
Orbital period
94.11 mins
BSTAR
-0.00018112
Loading maneuver chart data...
Computing Atmospheric mass density...
Loading historical data...
Loading historical data...
Loading historical data...
Loading historical data...
Loading historical data...
Loading historical data...
Loading historical data...

Documentation

Showing up to 5 results
|